Location: Chomutov
(50.4500°N, 13.4333°E)
Time: 01:56:47
(UTC+02:00)

FO-29 - Pass Details

Date: 28 September 2021
Orbit: 800 x 1321 km, 98.6° (Epoch: 27 October)

Event Time Altitude Azimuth Distance (km) Brightness Sun altitude
Exits shadow 23:42:02 14° 252° (WSW) 2,999 12.0 -39.4°
Maximum altitude 23:45:07 18° 279° (W) 2,792 12.1 -39.6°
Drops below altitude 10° 23:50:06 10° 319° (NW) 3,360 12.9 -39.9°
Sets 23:54:04 0° 337° (NNW) 4,317 13.8 -40.1°
